sat.trackr.live / text

‹ back to catalog

STP-S29A OBJECT E

NORAD 68631 · 2026-074E

PAYLOAD ACTIVE UNKNOWN

§ Identity

Operator
Country
US
Launch date
2026-04-07
Launch site
AFWTR
Launch vehicle
Mass (kg)
RCS (m²)

External: N2YO · Heavens-Above · Gunter

§ Orbital elements

Epoch: 2026-09-20T04:12:22.099392Z

Period
94.41 min
Inclination
60.0199°
Eccentricity
0.0036474
Mean motion
15.25215877 rev/d
Perigee alt
465.1 km
Apogee alt
515.2 km
Semi-major
6,868.3 km
B*
1.2203e-4
RAAN
173.4354°
Arg perigee
91.2939°
Mean anomaly
269.2321°
Rev number
2,527

§ Raw data

STP-S29A OBJECT E1 68631U 26074E   26263.17525578  .00002847  00000+0  12203-3 0  99932 68631  60.0199 173.4354 0036474  91.2939 269.2321 15.25215877 25279

JSON: /api/v1/satellites/68631 · /tle

For live sub-satellite position, see the globe view (requires WebGL).

§ Visibility from observer

Set your observer location to see the next 7 days of passes ≥ 10°. The values pass through the URL so the page stays shareable.

No JS? Fill the form by hand. The geolocation button needs JavaScript.